Wind_Speed
8 8 9 9 9 9 10 10 10 9 9 8 8 9 10 11 12 13 13 13 13 13 14 15 14 14 14 14 16 16 19 20 15 13 11 8 8 12 16 15 11 9 8 9 8 7 7 8 9 9 8 6 4 3 5 6 3 3 4 5 6 7 7 6 6 6 6 7 7 3 2 2 4 2 1 1 4 6 7 7 7 7 8 11 16 14 12 16
8 8 9 10 9 9 10 11 11 10 9 10 9 9 10 11 11 12 13 14 14 13 14 16 16 16 15 14 14 15 19 17 14 14 9 5 9 11 12 14 12 7 6 10 10 10 8 7 7 8 5 3 4 4 4 5 4 4 4 5 7 7 6 5 7 8 7 9 9 7 4 5 5 3 1 4 7 6 8 8 7 9 11 12 16 19 15 18
8 9 9 10 10 9 10 11 12 10 10 11 10 10 11 11 11 11 11 13 14 14 15 16 17 18 16 14 13 15 18 14 10 6 2 5 9 10 6 8 9 5 7 10 10 10 10 8 6 6 5 4 4 4 4 4 4 5 5 6 7 7 7 6 6 7 8 10 11 11 9 9 8 4 3 7 10 10 10 8 8 11 11 10 13 17 18 19
7 9 9 10 10 10 10 11 12 11 11 11 11 12 12 12 11 11 11 12 13 14 15 16 18 17 14 12 12 14 13 9 4 2 4 8 6 7 4 3 4 4 6 8 10 11 10 8 6 5 5 4 4 5 5 4 4 4 5 6 7 7 9 8 7 9 9 8 9 11 9 10 9 7 7 8 11 11 9 8 11 13 12 11 10 9 12 14
7 8 9 10 11 11 11 12 12 12 11 11 12 12 13 13 12 12 12 12 12 13 14 15 16 14 12 10 10 11 7 4 0 2 6 8 5 6 4 1 1 3 3 5 9 10 8 7 5 4 5 4 5 5 5 6 4 3 6 9 9 8 8 7 7 7 4 5 6 8 9 9 8 9 9 10 12 9 7 9 11 12 10 10 10 7 5 7
8 9 10 11 12 12 12 12 13 13 12 11 12 13 13 13 13 14 13 12 12 13 12 13 14 12 10 10 10 7 3 3 1 1 5 7 4 5 6 4 3 3 2 4 10 9 7 6 6 5 5 5 6 6 5 7 7 5 6 8 8 7 9 8 8 5 0 4 7 7 9 8 10 12 9 12 15 11 10 12 11 11 11 11 12 10 10 11
8 9 9 11 12 13 14 14 14 14 13 12 13 14 14 14 14 14 14 13 12 12 11 10 11 11 10 9 7 4 5 5 2 1 4 4 3 6 8 7 4 3 2 5 10 8 6 8 8 6 5 6 6 6 6 7 7 6 7 7 7 8 11 10 9 7 3 6 8 7 9 10 13 13 9 13 15 14 15 14 12 12 12 12 12 13 14 14
9 9 9 10 11 13 14 15 15 15 14 13 14 15 15 14 14 14 14 14 13 12 10 8 9 9 9 5 3 3 5 5 4 3 3 4 6 9 10 8 5 2 3 8 10 8 6 8 9 6 7 6 5 6 6 6 5 7 8 8 7 9 11 9 8 8 6 7 6 7 12 14 14 12 14 18 18 18 17 14 14 13 13 13 13 15 15 14
9 9 9 9 10 11 13 14 14 14 14 14 14 15 15 15 15 15 15 15 13 11 8 7 7 6 5 2 1 3 4 4 5 4 5 6 7 9 9 6 4 3 5 9 10 8 5 6 7 6 5 5 5 6 5 5 4 6 9 9 9 10 11 9 8 9 9 7 4 8 15 15 11 10 17 20 19 18 14 13 15 13 14 14 13 16 14 13
10 10 9 10 10 11 12 13 14 14 14 14 14 14 14 14 15 15 15 15 14 11 8 6 5 4 2 1 0 3 3 3 4 4 6 7 6 5 5 3 3 5 7 9 8 7 5 4 5 3 3 4 4 5 6 6 2 2 6 7 8 10 9 9 9 9 8 7 7 11 15 14 9 8 13 15 16 13 9 13 13 10 11 11 11 12 10 10
11 10 10 10 10 11 11 12 13 14 14 14 14 14 14 13 13 13 13 14 13 10 8 5 4 4 2 1 1 4 4 4 4 4 6 6 3 3 4 3 3 6 7 8 7 7 8 6 5 4 2 2 4 4 4 2 1 3 5 6 8 10 10 10 12 10 7 6 8 9 12 13 9 9 15 19 18 11 8 11 9 8 8 8 10 9 8 8
11 10 10 9 9 10 11 12 12 13 14 14 15 14 14 12 11 11 11 12 11 8 6 4 2 3 1 1 4 8 8 6 5 5 7 5 2 3 3 3 4 6 6 7 8 7 8 6 4 3 2 2 4 3 2 3 2 4 4 6 9 10 11 13 13 11 9 6 3 1 8 13 11 14 21 21 19 12 9 11 9 9 8 8 9 8 8 8
11 11 11 10 9 9 10 11 12 13 14 14 15 15 14 12 10 9 9 10 9 6 4 2 1 3 1 2 5 9 11 9 7 4 4 4 3 3 5 6 4 6 8 9 8 5 4 4 3 4 2 2 2 2 3 3 2 3 4 5 7 7 9 13 12 10 10 5 5 4 5 10 8 12 18 16 14 11 8 10 9 8 7 8 9 8 9 9
10 11 11 11 10 10 10 11 11 12 13 14 15 15 14 13 10 8 7 8 7 4 3 2 2 2 0 4 6 7 10 10 8 4 4 4 2 2 4 7 7 7 9 11 10 7 5 4 4 3 2 1 1 3 4 3 2 2 4 4 4 4 4 6 5 8 8 3 5 5 5 9 7 11 14 8 6 6 6 7 7 7 7 7 8 8 9 9
10 11 11 12 11 10 10 10 11 11 12 14 15 15 14 11 8 6 6 6 4 3 3 2 1 0 2 7 6 6 8 7 6 5 5 2 3 2 2 6 8 8 6 8 8 7 7 6 4 2 1 1 0 3 4 3 2 2 3 4 4 4 4 3 2 8 6 1 5 7 4 8 9 10 6 1 1 2 5 7 7 8 9 9 9 8 9 9
10 10 11 12 11 11 11 10 11 11 12 13 15 15 11 8 6 4 4 4 2 4 5 1 2 2 3 4 4 5 6 5 7 7 3 3 6 2 3 4 4 5 3 5 6 4 8 7 2 1 1 0 1 1 3 4 4 3 4 4 4 4 5 2 1 3 3 1 6 9 5 6 7 8 5 3 4 5 8 9 9 10 10 10 9 9 9 8
9 10 11 11 12 12 11 11 11 10 11 12 14 12 7 6 3 0 1 2 2 5 5 0 1 2 4 4 5 4 3 5 5 3 0 3 4 4 3 2 2 3 2 3 5 4 5 4 1 1 1 1 1 2 1 3 4 4 5 4 5 6 6 3 0 2 3 4 7 9 8 9 11 13 12 11 12 11 13 13 11 11 10 10 9 8 8 7
8 9 10 11 12 12 11 12 10 10 11 9 9 6 2 2 2 3 3 6 5 4 3 2 1 2 4 5 4 0 1 2 1 2 3 5 4 4 2 2 1 3 3 3 3 3 2 0 1 0 1 2 3 3 3 5 3 2 2 3 5 6 6 5 1 2 5 6 6 7 8 11 14 16 15 12 11 12 15 13 10 10 9 10 9 8 8 7
8 8 9 11 11 12 12 12 10 10 9 3 6 4 2 3 4 3 4 6 4 3 2 3 4 1 2 3 3 3 1 1 1 1 1 4 5 4 2 5 2 2 2 1 1 1 1 2 2 1 3 4 5 6 7 9 5 6 4 2 5 5 5 6 2 2 4 4 6 7 9 11 14 16 15 12 9 11 14 12 10 9 10 9 8 8 7 7
7 7 9 10 11 12 12 11 10 9 6 1 5 3 1 1 2 3 6 8 7 7 4 4 9 3 2 1 2 3 2 3 1 2 3 3 2 1 2 3 1 0 2 1 2 1 2 2 3 4 6 6 7 9 11 13 10 8 6 5 6 5 6 7 2 2 1 2 5 7 8 12 13 15 15 12 9 11 14 13 11 11 10 9 8 8 7 7
8 7 8 9 10 12 11 11 9 7 5 1 1 1 1 1 2 1 3 8 12 15 11 7 12 7 1 2 3 3 1 2 1 2 5 5 3 1 3 4 2 1 3 2 3 0 2 3 7 7 7 7 5 6 9 11 10 8 6 5 6 5 7 6 0 1 2 1 4 6 9 13 13 13 15 13 12 14 14 12 12 13 11 8 8 9 7 4
9 7 7 8 10 11 11 10 8 7 5 2 3 5 3 4 2 1 1 6 10 16 15 10 10 7 3 3 3 2 1 2 2 3 7 6 4 3 2 4 3 3 3 3 3 2 1 6 9 5 4 5 3 2 2 4 6 6 5 5 5 5 6 4 3 1 2 1 4 6 9 14 15 15 16 16 14 14 14 12 13 12 9 6 3 4 3 3
10 8 7 7 9 10 10 10 8 7 5 5 6 6 4 4 3 2 1 5 6 9 12 10 9 7 4 2 4 5 2 3 3 4 10 8 4 3 3 4 4 4 5 5 4 3 3 6 6 2 1 4 4 2 1 1 3 4 4 4 5 5 4 2 2 2 1 4 5 6 8 12 15 14 13 14 12 12 12 13 13 9 5 2 1 4 4 3
10 9 7 7 9 10 9 10 9 8 7 8 11 10 6 4 4 4 2 4 5 2 2 4 6 5 5 3 6 8 4 4 4 4 10 10 4 2 3 4 5 4 4 7 7 6 5 2 1 2 2 3 4 3 4 3 3 5 7 6 6 5 4 3 3 5 4 4 4 4 7 8 8 7 9 8 7 9 9 10 10 8 2 4 3 1 4 4
10 9 7 7 8 8 8 9 8 6 6 7 10 11 10 7 2 5 3 3 4 1 3 1 2 2 3 5 6 6 3 4 2 2 9 9 3 2 2 2 3 4 6 8 7 7 6 1 0 2 3 3 3 4 5 5 4 4 6 6 4 4 4 4 5 5 4 3 1 3 4 6 5 6 11 10 6 7 7 8 9 7 1 5 3 4 5 5
9 9 8 6 7 6 6 5 2 3 4 5 6 7 8 9 4 2 1 2 4 1 2 1 2 2 4 5 4 2 1 2 1 4 7 5 3 1 1 1 1 3 4 5 3 3 2 0 1 1 4 4 4 5 5 7 3 4 3 2 2 2 2 3 4 2 2 3 2 2 1 6 7 8 13 11 7 8 7 6 4 2 3 5 4 5 6 5
8 9 8 6 5 4 2 2 1 2 3 2 5 6 5 7 8 1 0 2 3 1 2 0 1 3 4 3 4 2 0 1 1 2 3 2 3 1 1 3 2 2 3 1 0 2 2 3 1 1 3 4 5 4 4 8 4 3 3 3 3 1 1 2 2 1 2 4 3 4 4 4 7 8 13 10 7 9 6 5 4 4 2 4 5 6 6 4
8 8 8 6 5 3 4 5 5 3 2 1 2 5 4 7 8 2 1 2 2 1 1 1 1 2 3 1 2 2 0 2 1 0 1 1 2 1 1 4 2 3 4 3 2 3 1 3 4 4 3 4 4 1 1 3 3 1 2 3 2 1 2 2 1 2 4 4 4 4 4 2 5 8 13 9 6 8 4 8 6 4 5 6 6 5 4 3
7 8 8 7 6 5 6 7 7 5 3 3 3 2 6 7 5 1 1 2 1 1 1 2 2 2 3 2 2 2 1 2 1 1 1 2 3 1 1 4 3 2 4 3 3 2 0 2 3 4 4 3 2 2 4 1 2 1 2 3 2 1 2 1 0 2 2 1 6 7 5 3 5 7 10 7 6 6 5 8 6 7 8 7 5 4 3 2
7 7 8 7 5 3 4 8 12 10 6 4 3 3 7 5 2 0 1 2 1 1 1 1 1 3 5 4 3 4 4 2 2 3 2 1 1 1 1 1 1 1 3 4 4 2 2 1 0 2 2 2 4 2 2 1 1 1 3 3 3 3 2 1 1 1 2 2 7 7 7 4 2 6 7 4 2 1 4 5 6 7 7 6 5 4 3 3
8 8 8 8 6 3 3 4 9 11 10 7 3 5 6 2 1 1 3 1 1 1 1 1 1 3 5 4 3 5 5 3 4 4 2 1 1 1 2 1 0 2 3 4 5 3 4 2 1 1 0 3 4 2 1 1 1 1 2 2 2 1 1 1 1 1 0 4 5 3 3 4 3 6 6 4 1 5 3 2 5 7 7 6 5 4 4 4
9 9 8 10 10 8 7 5 2 6 8 5 3 3 3 1 2 3 3 0 1 2 2 2 2 3 4 4 2 4 4 3 5 5 3 3 3 3 4 4 3 1 3 4 3 1 2 2 3 2 2 1 4 2 0 2 2 1 1 1 1 1 1 1 0 2 3 4 3 1 1 1 6 8 9 11 10 7 4 2 3 6 6 4 4 4 4 3
10 10 10 12 13 14 15 9 4 6 6 4 3 3 1 3 4 4 4 2 0 2 1 2 3 3 3 2 2 3 1 1 5 4 2 3 3 4 7 8 6 2 1 2 2 1 2 2 3 3 1 2 4 3 2 2 3 4 3 3 3 1 2 2 3 3 3 3 3 3 1 2 5 7 8 10 8 4 2 1 4 6 5 3 3 3 1 3
11 11 12 13 15 17 17 12 7 6 4 3 2 2 2 5 3 0 3 3 1 1 1 2 3 3 1 2 1 1 1 1 4 4 2 3 2 3 6 9 9 4 1 1 2 3 3 3 1 2 0 1 3 3 2 2 4 5 4 3 2 2 2 3 2 2 2 1 1 2 1 3 4 4 5 5 5 4 2 2 5 5 4 4 5 3 2 5
11 11 13 15 17 19 17 14 10 6 3 3 3 3 5 6 2 1 3 2 2 3 1 1 2 3 2 3 2 1 2 1 3 3 2 4 4 3 4 6 9 7 3 1 2 2 3 4 1 1 1 2 1 1 1 1 3 4 1 3 1 2 2 1 1 1 0 1 1 1 3 5 5 6 9 9 8 3 1 1 3 4 4 4 5 4 4 5
10 11 12 14 17 18 16 15 13 8 4 3 4 6 7 5 2 2 2 3 3 5 5 1 2 3 3 3 3 3 1 2 2 2 3 5 4 5 6 5 8 10 7 4 2 2 2 3 1 1 1 1 2 2 2 1 1 1 2 2 4 2 1 1 1 1 2 0 3 4 4 5 4 7 10 6 2 1 1 1 1 4 5 4 4 5 5 5
9 9 10 13 16 15 13 15 15 10 4 3 6 7 6 5 4 1 1 2 1 4 6 2 3 4 4 3 3 4 3 2 3 2 2 3 4 5 7 4 5 11 12 6 2 0 2 1 2 1 1 2 3 4 3 1 1 2 2 2 3 2 1 1 1 2 0 3 4 5 6 6 2 4 5 0 1 5 5 3 3 4 6 5 5 6 6 6
7 7 10 14 16 14 12 16 17 9 3 4 7 7 4 5 3 1 2 2 1 2 4 3 3 4 3 2 2 4 4 3 4 3 2 3 3 3 5 3 3 7 8 5 1 1 2 0 3 2 1 0 1 3 2 1 1 2 2 2 1 1 1 1 2 2 2 3 3 4 7 5 4 4 4 3 5 7 7 7 6 6 7 7 7 7 7 7
5 4 5 8 15 15 14 17 14 6 3 6 9 7 4 5 3 2 2 1 0 2 3 4 3 2 2 3 2 4 5 3 5 4 3 3 3 2 4 3 2 2 1 5 3 2 1 1 3 3 2 1 1 0 2 2 0 2 3 2 1 1 2 3 2 1 2 2 3 5 6 4 5 6 6 8 8 6 5 7 8 8 8 7 7 7 7 7
6 3 1 7 15 16 17 15 8 5 6 7 8 5 2 3 3 2 1 1 1 2 3 5 5 3 4 3 1 3 4 3 4 4 3 3 2 3 3 2 3 2 3 3 1 1 1 2 2 2 3 1 2 4 5 6 5 2 0 2 2 1 1 1 2 1 3 1 2 3 5 5 5 4 6 8 6 5 3 3 6 8 9 8 7 7 7 6
5 3 1 7 15 20 19 10 4 5 6 6 7 5 2 2 3 2 1 2 1 0 1 2 3 3 5 3 2 3 4 3 4 4 3 3 3 3 3 2 6 6 3 3 1 2 2 2 3 2 1 3 4 2 1 3 5 6 6 6 5 4 3 1 3 3 2 2 2 2 5 8 5 4 6 7 4 2 2 1 2 4 7 8 7 7 7 6
4 3 1 8 21 25 15 5 5 5 5 6 5 4 3 3 3 3 2 2 2 1 2 1 2 2 3 4 3 4 5 4 5 4 3 5 6 4 3 2 7 8 5 3 3 2 2 1 2 3 3 4 4 1 1 1 1 3 4 4 5 5 5 4 4 3 1 1 1 3 2 7 3 4 5 5 6 5 4 3 2 3 4 7 7 7 7 7
4 2 2 8 21 20 8 4 5 5 6 3 3 3 1 2 3 4 4 3 1 2 1 2 3 4 4 4 4 4 5 4 5 6 4 5 6 3 3 2 7 8 4 3 2 1 2 1 2 3 1 1 3 1 2 3 1 1 4 4 4 4 6 5 3 2 2 2 2 3 3 7 3 2 4 5 5 4 3 4 6 5 4 6 7 7 7 7
3 3 2 6 16 12 5 7 7 7 8 4 5 6 1 1 4 6 5 6 5 4 4 4 4 5 5 4 4 6 6 4 5 7 5 5 4 1 2 2 4 5 3 1 3 3 3 2 3 2 2 2 2 2 3 3 1 3 4 4 5 5 4 1 0 1 1 5 8 5 5 9 5 1 2 3 3 4 6 7 7 6 6 6 6 7 7 7
3 3 2 5 10 7 4 4 5 7 10 9 10 10 5 3 4 7 8 7 5 5 4 3 4 4 3 3 3 5 7 5 4 5 5 5 3 0 1 1 1 1 1 2 1 2 3 3 4 4 4 5 3 2 3 2 2 3 4 5 8 8 6 3 1 2 3 7 9 6 6 12 9 6 7 7 6 6 7 7 6 6 7 7 7 7 7 7
2 3 2 4 4 6 5 2 2 5 7 9 9 9 10 10 4 3 6 7 7 7 5 1 1 2 3 4 5 6 6 5 3 2 3 5 3 0 1 0 1 2 1 3 3 1 0 2 5 6 7 7 5 4 3 3 4 4 4 7 8 9 10 6 1 4 6 7 7 8 10 14 16 14 13 13 11 9 9 8 7 6 7 7 7 7 6 6
2 2 4 6 2 5 6 5 5 4 4 8 7 6 12 16 7 2 4 6 6 8 5 1 2 5 6 6 6 5 5 5 3 2 6 6 3 0 1 1 2 4 2 1 1 0 1 3 7 8 10 10 8 6 5 5 5 6 6 8 9 9 10 8 8 10 8 5 9 11 10 12 18 19 19 18 15 11 11 11 9 7 7 6 6 6 7 7
4 2 3 6 5 5 8 9 10 9 9 10 8 6 11 15 11 8 5 2 2 5 5 3 7 12 12 10 7 4 4 4 3 5 8 7 4 2 1 1 2 4 4 1 1 2 2 4 6 7 10 12 11 10 7 5 6 7 7 9 10 10 11 14 16 16 11 9 11 10 10 14 16 18 21 20 16 13 13 11 8 7 7 5 5 7 7 8
4 3 2 4 4 5 9 12 14 16 17 13 9 9 12 13 14 11 6 4 1 6 9 10 12 16 18 13 9 7 7 6 7 9 9 6 4 4 3 2 1 2 5 4 1 2 2 3 5 7 8 11 11 10 9 8 9 10 10 10 10 12 16 19 18 17 15 16 16 14 17 18 14 15 21 21 16 12 11 10 9 11 10 7 6 8 8 8
5 3 3 3 4 3 6 9 11 13 14 12 12 14 12 12 14 10 6 8 8 7 11 16 15 14 17 15 12 12 12 12 12 12 8 6 4 4 5 4 3 2 4 5 2 2 2 3 4 3 4 9 10 9 9 10 12 14 13 9 9 13 17 18 16 14 14 17 19 20 20 17 14 17 21 21 19 14 12 12 13 13 13 10 8 8 8 8
6 1 2 2 5 5 5 6 8 9 10 11 14 14 11 14 15 11 7 13 15 10 12 19 18 11 12 14 16 17 16 16 18 14 9 10 8 6 6 5 7 6 5 5 4 3 4 3 1 3 2 8 6 6 8 7 11 17 14 10 13 18 18 15 13 13 14 17 19 17 14 13 16 19 18 17 18 18 17 15 12 11 10 9 8 8 8 9
6 1 2 1 4 5 6 6 7 8 10 12 13 13 13 14 14 12 9 10 14 13 12 16 17 11 10 15 19 20 18 16 14 8 5 7 7 7 7 7 9 10 7 6 4 4 6 5 2 3 4 6 4 4 4 4 9 15 10 15 21 22 18 13 11 14 19 19 14 12 14 16 17 16 15 17 17 16 15 13 10 10 8 6 7 8 9 9
Wind_Direction
302 300 302 294 285 279 278 277 277 280 285 288 287 289 291 296 303 306 307 305 304 307 314 318 320 318 311 310 313 317 320 316 311 293 273 275 287 276 271 263 260 271 253 228 217 218 216 212 208 198 201 199 209 222 177 170 156 185 222 232 230 228 227 230 239 250 263 272 267 231 163 254 286 256 184 172 215 231 241 240 236 227 222 223 241 238 178 174
310 304 305 302 291 282 281 280 278 279 282 284 285 289 290 296 304 307 309 306 302 301 308 314 317 320 315 311 311 313 319 315 302 295 280 285 311 300 275 252 245 252 232 225 227 227 228 227 200 186 205 205 195 189 161 156 169 199 221 227 231 232 231 234 249 262 272 280 292 302 294 278 289 292 295 276 261 251 252 248 245 245 238 225 231 236 202 180
315 312 307 304 295 287 285 284 284 282 279 281 285 288 290 295 301 306 308 304 300 296 301 310 317 322 317 311 309 311 319 316 305 308 322 312 320 331 307 232 221 227 225 235 251 249 245 250 221 191 212 218 197 183 174 162 170 205 218 232 235 238 250 255 262 266 274 287 292 294 298 292 299 309 272 275 275 264 256 252 253 255 251 242 233 227 208 189
317 316 307 305 300 291 289 288 289 286 281 280 281 284 287 293 299 302 303 301 298 293 300 310 317 321 313 306 306 312 319 310 308 52 2 338 340 359 358 204 212 232 226 246 279 287 272 257 244 222 226 227 213 199 200 183 170 202 209 234 240 236 252 256 264 266 271 286 284 285 294 289 293 288 263 264 268 259 249 240 241 250 253 255 255 237 211 197
316 314 304 301 298 291 288 289 291 289 283 280 281 282 285 291 294 296 297 301 297 295 305 310 315 320 309 302 309 319 321 293 101 108 339 352 6 13 27 84 276 231 222 268 286 289 279 257 235 229 235 237 232 214 214 207 197 226 219 234 242 243 257 260 268 269 271 292 287 283 281 282 287 275 265 260 257 253 247 245 244 256 270 276 284 296 270 232
313 313 302 296 294 290 286 287 290 290 286 283 282 282 285 287 288 290 292 298 299 298 307 309 314 319 305 301 315 324 293 278 116 162 336 1 1 24 38 22 340 253 234 288 281 265 254 242 219 220 227 229 239 230 223 212 198 230 240 237 243 251 261 269 276 270 277 282 269 271 279 289 287 275 269 257 256 261 259 257 261 268 275 281 284 288 281 268
310 311 306 301 296 293 289 288 290 291 291 288 283 281 283 285 285 288 291 295 299 300 308 315 317 314 300 301 316 296 243 275 298 274 339 360 351 20 17 9 358 280 215 247 262 251 237 231 220 215 224 226 237 234 239 234 196 212 252 254 254 255 251 251 258 252 205 248 257 271 287 282 273 275 273 259 259 262 260 261 265 268 268 266 267 266 263 260
307 305 305 308 304 299 295 292 294 293 292 287 282 282 285 288 288 288 291 293 296 301 311 319 316 307 301 313 333 274 250 247 230 260 325 344 352 3 2 7 10 327 231 241 251 252 250 238 229 218 229 231 234 239 240 246 206 211 250 261 260 260 257 251 251 251 235 243 257 269 270 262 260 273 275 267 262 258 259 266 265 264 265 260 257 258 257 255
305 302 299 303 302 300 298 296 297 297 296 290 287 286 288 289 289 291 293 293 294 300 306 308 313 319 321 359 37 287 271 213 210 254 311 332 341 350 360 6 346 306 256 257 256 263 267 248 245 233 249 255 245 251 226 220 209 214 238 247 251 255 258 254 245 247 248 247 243 255 261 259 261 274 270 261 258 258 255 258 257 254 254 253 252 253 252 251
301 301 297 296 297 297 299 297 297 302 301 296 292 287 288 288 288 291 293 294 294 295 294 289 313 346 13 65 223 268 262 211 223 270 300 319 334 334 342 339 297 277 269 267 259 264 258 257 295 312 314 306 270 261 217 204 210 237 250 259 265 268 267 262 256 249 250 252 233 243 259 261 258 260 265 258 253 255 247 248 249 244 247 245 249 254 250 246
301 301 300 298 298 297 299 298 297 303 302 300 296 289 290 290 290 291 289 289 289 292 288 274 315 352 66 108 231 243 245 234 251 301 304 312 334 294 289 300 275 263 268 268 254 254 254 270 345 351 306 310 304 283 240 225 294 291 293 293 283 278 273 262 261 256 244 249 235 241 266 267 256 242 254 261 260 252 239 250 249 242 251 247 248 253 250 249
301 302 302 302 303 301 301 301 300 300 301 302 298 296 298 298 299 293 284 282 281 286 282 266 327 5 78 155 229 242 247 240 260 309 311 311 311 275 316 334 271 255 259 266 264 253 251 272 331 306 266 326 302 270 291 336 307 288 299 296 286 278 269 252 244 238 226 228 202 249 291 267 242 231 242 253 262 261 243 248 251 245 251 251 249 244 241 241
302 302 303 304 306 305 304 303 302 301 302 302 300 300 299 299 303 294 282 277 272 271 262 246 11 21 23 220 238 248 244 239 258 293 292 296 287 272 341 351 301 266 250 254 265 250 238 250 256 277 308 346 301 264 291 293 245 271 261 255 278 284 268 246 231 214 212 204 124 105 288 264 237 235 245 249 251 251 240 240 244 243 245 246 242 236 236 232
301 302 303 303 303 305 305 302 301 301 301 301 300 298 297 296 297 290 278 273 271 255 218 165 55 39 273 259 268 257 246 246 255 251 225 254 275 253 335 349 328 295 259 250 251 243 245 233 209 252 286 212 304 312 301 279 202 257 262 233 241 263 273 255 202 163 182 195 131 147 246 267 282 275 267 266 241 235 245 245 246 248 248 248 241 233 233 229
297 301 304 304 303 304 305 305 302 299 299 298 298 298 299 298 294 285 273 268 262 216 173 128 81 54 282 277 272 258 261 254 226 214 217 169 95 135 318 340 323 308 271 240 239 235 224 206 189 217 249 141 280 306 309 290 230 212 250 250 217 217 259 294 138 157 177 214 169 174 241 267 274 281 282 4 107 214 251 248 242 246 247 252 252 244 241 236
292 298 304 306 306 305 306 307 304 302 300 297 298 299 300 301 296 283 269 263 231 166 143 118 197 210 287 278 256 267 266 228 200 208 220 69 78 73 322 325 290 289 276 221 213 199 194 192 199 216 173 25 168 212 304 297 268 212 202 256 252 217 239 247 176 209 187 144 191 200 253 281 274 285 305 324 298 272 265 259 250 250 250 250 249 245 242 241
289 299 306 308 307 308 309 307 305 305 301 297 302 302 300 299 297 324 176 145 135 148 149 314 140 191 257 264 274 288 237 200 200 204 273 2 40 47 349 325 216 226 223 193 177 165 188 193 232 216 173 264 209 163 253 267 261 235 201 240 262 248 249 244 339 269 197 197 215 213 238 262 269 279 284 282 281 277 272 268 262 258 254 250 248 244 241 239
289 301 306 308 308 309 310 309 307 306 304 312 324 316 297 266 161 122 125 128 114 140 176 257 109 181 250 257 258 230 161 205 238 47 11 315 331 28 340 263 223 203 195 183 178 183 218 192 63 320 199 214 231 195 203 225 242 298 222 223 273 269 256 254 243 191 199 213 227 225 242 262 271 276 277 272 268 267 266 266 264 260 256 253 249 247 246 245
288 299 306 308 309 309 310 310 307 309 310 359 37 32 77 108 148 173 184 158 143 175 200 196 184 207 292 234 187 126 114 156 133 84 39 289 309 3 273 246 256 225 220 190 178 219 159 83 57 276 227 203 212 210 222 243 278 338 321 283 296 299 273 272 273 181 225 240 241 246 259 270 274 276 278 274 267 267 270 273 272 265 259 254 249 248 244 240
287 296 305 305 308 310 310 310 307 313 312 65 55 35 127 157 203 209 191 193 212 233 259 186 185 235 326 222 142 124 155 169 181 171 183 235 292 19 221 230 266 322 266 181 145 271 128 152 217 212 221 218 215 218 228 250 276 304 312 307 290 288 280 281 274 173 262 295 261 269 274 273 274 276 280 281 274 269 268 269 269 264 258 248 239 240 236 230
291 297 304 304 308 310 309 310 306 310 305 262 20 271 247 330 267 275 191 219 224 229 251 217 193 217 226 136 137 126 148 209 238 170 188 206 173 173 194 176 157 207 242 154 111 63 126 198 234 223 226 227 230 231 224 239 263 281 295 298 285 275 271 281 36 132 72 61 276 298 294 281 278 277 281 283 277 269 264 263 261 259 256 246 226 218 218 211
292 296 303 302 305 311 311 309 303 304 297 226 229 244 290 1 338 344 268 256 233 219 234 227 205 216 180 153 175 148 20 243 237 176 183 186 169 196 176 161 200 195 177 135 106 120 183 237 238 231 239 220 221 253 213 239 261 273 282 274 272 276 274 297 44 56 81 111 281 312 307 289 285 280 277 273 266 262 260 255 252 251 251 256 233 180 167 90
290 292 300 302 307 313 311 307 299 291 263 210 219 232 280 338 1 11 271 284 273 215 216 214 206 213 194 187 183 170 214 229 224 187 174 175 179 208 188 180 215 197 168 182 182 170 202 243 233 209 275 223 215 192 153 276 266 243 247 253 261 274 277 284 4 343 267 214 257 308 306 287 284 281 275 266 255 250 248 245 248 248 230 220 66 88 99 89
288 291 294 303 309 311 313 310 293 270 235 218 231 227 246 305 1 0 300 271 275 212 179 197 197 216 203 165 170 180 212 225 219 184 169 175 179 181 207 209 215 218 201 199 207 220 228 246 220 172 191 225 231 190 176 214 250 233 223 229 248 265 275 284 325 333 302 245 239 312 309 279 276 287 287 284 266 246 233 232 253 270 243 111 83 133 156 167
287 287 292 305 309 312 317 306 280 248 211 215 243 241 245 256 324 357 325 272 263 248 36 92 160 227 178 135 155 174 199 218 229 139 166 186 194 148 194 222 216 227 218 205 211 238 245 253 113 185 177 202 226 216 195 200 241 261 229 226 246 284 308 320 330 335 325 313 339 24 339 284 296 313 294 296 289 256 225 215 245 275 315 109 137 215 183 189
285 287 292 300 306 316 318 306 253 208 201 207 235 249 249 235 229 347 330 275 275 222 85 148 175 189 158 142 159 155 157 217 10 100 157 200 237 201 210 177 182 245 231 209 209 243 234 167 322 203 186 190 208 238 207 176 213 282 250 278 338 320 315 302 304 316 288 297 287 108 84 279 297 300 281 285 285 259 230 201 225 343 78 128 182 192 170 188
281 287 289 292 308 317 302 327 328 219 219 213 226 245 252 212 203 230 8 256 269 185 124 211 230 174 157 153 184 190 159 167 99 108 156 208 205 185 229 172 139 238 241 110 197 260 119 125 251 242 199 198 203 244 199 160 175 257 257 315 336 274 252 265 289 279 262 301 284 177 154 267 290 286 276 284 287 265 229 147 97 62 112 173 183 171 169 185
277 283 288 289 292 268 253 295 307 266 253 339 264 240 213 184 197 211 22 279 267 109 120 124 84 129 139 145 229 250 287 162 176 129 93 214 190 114 218 224 215 203 197 151 196 260 98 158 197 173 177 208 200 262 309 171 179 219 259 296 324 330 306 305 354 271 278 328 297 233 154 220 277 280 283 288 279 261 189 124 118 141 176 194 185 164 165 177
273 280 284 285 284 265 253 261 268 265 259 300 321 206 165 169 198 193 29 278 224 101 55 99 118 136 136 153 221 254 240 187 210 100 128 208 228 213 218 251 274 190 186 208 226 258 249 194 189 159 175 207 158 51 356 328 170 200 270 270 268 289 300 315 6 283 305 311 265 245 170 182 275 273 282 297 286 257 161 134 152 169 180 188 176 147 144 149
270 277 280 281 284 264 240 238 244 250 250 274 303 154 153 168 207 148 209 243 145 109 34 84 145 147 151 165 180 202 220 199 120 144 174 182 216 259 231 208 287 240 211 233 242 208 121 82 332 167 168 145 122 83 5 12 122 220 256 246 237 218 185 197 201 252 337 254 257 244 178 157 297 269 262 265 279 37 111 139 163 169 168 158 140 121 112 83
268 272 276 271 265 239 203 215 238 246 246 262 265 160 163 194 236 201 212 206 84 135 184 161 129 137 174 201 171 169 202 208 149 156 187 154 128 227 244 210 110 287 256 236 236 197 139 149 200 164 97 131 129 97 351 258 262 262 249 262 287 251 129 73 140 101 244 242 261 271 158 141 231 257 255 237 284 11 357 226 179 168 154 133 125 110 95 82
269 269 269 265 264 251 227 205 237 259 236 226 218 190 191 236 228 222 225 47 84 191 193 150 170 176 197 234 233 162 187 203 172 178 198 184 185 195 207 209 161 166 251 231 219 173 172 194 134 93 332 199 160 144 112 246 232 171 220 292 44 20 337 334 223 179 211 248 265 256 121 171 240 254 266 273 286 303 285 250 161 155 141 107 92 86 85 96
267 271 268 263 262 253 237 228 265 271 227 180 194 230 231 231 229 214 205 211 223 206 100 93 157 171 175 211 233 167 150 182 160 177 213 182 208 215 203 214 211 194 231 220 199 181 285 313 116 126 297 234 195 174 157 221 195 168 174 164 143 165 264 248 235 218 216 265 265 234 218 258 272 266 252 261 277 268 235 189 142 139 136 124 117 118 124 109
268 271 270 263 259 255 245 237 245 248 220 177 191 196 202 230 249 229 196 205 227 190 98 91 130 124 163 223 271 147 126 250 165 151 171 172 207 230 208 216 222 215 103 306 253 215 253 290 186 168 164 197 211 177 157 179 171 192 202 151 141 193 215 221 219 232 263 304 278 296 286 216 238 262 229 242 268 257 266 205 164 141 134 143 139 138 123 111
268 268 269 264 258 255 246 232 225 218 209 198 189 192 206 220 241 271 212 168 161 170 126 312 142 127 229 228 250 251 125 210 197 153 186 204 203 210 207 210 207 198 162 184 237 201 223 250 204 211 233 181 202 116 82 89 156 214 177 91 161 225 196 220 207 191 210 2 275 251 255 221 228 279 276 278 283 260 36 36 141 129 116 112 116 130 134 136
268 273 267 254 251 253 242 225 209 197 212 192 182 213 219 217 211 218 197 129 145 146 126 252 186 168 229 196 198 238 106 115 187 173 213 217 226 222 215 216 193 187 183 184 212 191 209 258 300 215 237 52 17 5 16 57 161 217 87 143 248 246 120 201 277 35 90 30 252 214 250 274 288 293 278 270 274 216 152 43 126 142 133 123 140 162 173 174
264 275 266 249 247 248 234 212 194 185 209 195 200 221 216 216 223 207 131 101 133 145 133 171 189 176 215 198 178 188 153 140 170 185 222 202 234 224 211 233 185 183 196 199 239 236 144 265 290 327 356 7 8 355 334 323 110 110 156 240 287 346 44 157 278 339 183 241 252 212 241 270 267 287 292 97 173 233 217 183 182 170 154 167 194 194 194 188
262 271 270 254 239 234 215 192 182 179 201 199 224 240 211 212 236 120 138 114 51 162 151 185 189 167 191 207 164 145 152 168 157 177 230 193 228 195 171 210 178 178 201 186 193 302 114 254 292 331 2 284 21 9 319 298 84 133 217 248 49 89 256 181 177 254 239 249 279 260 263 258 201 226 269 261 247 234 207 182 184 187 179 189 201 196 191 181
250 259 271 227 209 212 195 175 172 187 210 197 220 238 208 215 230 120 167 190 103 177 187 208 201 162 169 171 132 136 164 178 153 176 221 189 222 194 160 198 177 134 190 153 172 256 121 150 269 301 343 86 77 173 191 194 20 1 333 312 161 184 202 186 184 202 203 246 297 297 292 264 208 208 212 231 254 254 213 186 187 193 191 194 193 186 188 184
235 249 263 175 184 185 169 161 170 205 207 205 220 228 190 215 210 136 111 306 171 181 206 215 199 176 185 190 194 168 178 189 169 187 216 182 212 229 194 181 140 104 29 73 151 267 99 163 220 302 336 48 185 207 188 183 177 160 250 225 216 208 173 194 277 216 154 181 273 287 288 264 224 198 201 220 254 294 284 229 213 197 179 185 190 177 181 188
230 237 203 172 173 162 149 154 198 202 206 222 230 234 223 205 186 152 52 16 347 26 61 235 222 179 172 191 228 185 173 195 193 203 226 204 219 234 217 161 140 140 81 49 271 221 163 187 175 165 235 222 223 229 192 183 171 170 187 194 191 181 143 115 270 248 148 155 199 198 279 274 232 193 230 230 213 239 279 326 267 210 167 173 187 180 182 192
234 227 166 160 164 156 148 175 202 194 217 218 226 244 223 197 183 170 141 53 350 328 39 338 255 201 174 184 191 173 172 189 194 201 224 218 211 213 239 207 149 150 140 133 214 216 125 161 220 203 199 219 245 257 59 347 143 167 205 203 188 182 170 172 216 235 178 189 167 116 263 278 242 183 217 199 170 188 198 168 218 250 186 169 183 196 197 201
223 207 85 156 168 164 168 206 190 212 230 223 270 269 184 181 187 167 166 172 183 188 196 235 219 219 226 199 170 174 187 191 190 194 212 226 214 215 293 242 149 152 163 159 182 185 92 145 232 251 259 286 297 323 16 354 19 209 245 221 192 203 204 190 187 198 177 186 163 133 232 265 278 216 205 170 162 193 213 205 208 228 230 196 196 207 208 219
224 210 70 166 184 184 199 197 187 213 215 218 265 244 220 297 199 179 186 192 182 170 187 211 209 220 232 200 173 187 191 188 199 202 202 208 207 140 346 271 168 170 193 189 176 176 178 181 178 229 281 298 324 343 335 323 265 227 247 212 202 232 230 168 52 236 224 215 199 182 240 255 258 301 252 209 198 223 233 228 214 217 236 231 221 223 222 232
219 209 110 154 193 208 238 210 187 210 208 213 238 233 234 266 210 195 199 194 190 182 179 202 205 203 202 173 187 209 202 201 207 212 210 204 211 34 52 319 301 217 307 343 317 181 183 193 165 171 221 231 231 248 253 240 188 224 253 204 200 213 200 165 118 188 216 232 217 199 242 258 269 296 286 264 249 249 249 240 224 224 236 236 232 232 225 223
204 224 162 131 186 223 257 289 209 212 201 204 231 231 221 230 228 204 204 197 198 194 186 212 175 169 177 179 203 223 219 220 202 203 228 203 182 175 193 185 75 113 55 329 306 297 151 236 212 200 217 221 214 221 208 144 138 187 214 198 199 205 200 193 185 205 217 242 244 227 236 263 277 278 274 269 262 263 269 267 263 255 249 239 223 219 216 213
213 235 176 148 163 225 238 250 233 227 194 193 205 198 211 223 223 192 205 201 199 195 199 245 175 185 192 182 199 220 211 212 198 216 237 215 168 97 227 203 158 142 130 315 288 145 125 247 237 228 238 242 244 242 205 152 166 192 188 191 200 200 195 199 218 222 215 233 251 238 228 250 268 270 269 269 266 265 267 269 271 264 252 238 209 205 219 226
212 261 193 172 183 199 209 215 210 216 218 212 206 186 206 217 209 200 202 191 209 195 191 221 210 210 210 188 183 199 178 186 214 231 236 220 185 175 178 236 196 148 138 125 84 132 176 243 238 234 250 256 259 260 247 235 237 218 198 196 196 193 193 204 221 224 213 223 246 247 232 234 249 263 267 266 264 265 267 269 270 262 253 237 211 216 228 236
201 291 258 206 223 200 193 196 196 208 216 216 221 217 212 212 208 204 174 124 230 214 200 214 213 213 218 202 183 193 178 178 222 234 230 217 186 172 176 221 235 149 155 166 162 169 176 222 235 239 261 264 263 267 264 263 264 251 234 212 189 194 204 209 220 225 223 234 246 251 250 248 247 256 264 268 268 264 269 281 283 278 278 266 235 236 243 247
189 242 214 209 257 226 193 192 191 208 218 214 226 228 218 215 213 202 165 168 198 204 202 216 216 211 219 209 199 214 202 190 218 226 200 183 189 190 203 200 163 165 188 171 176 226 184 195 216 214 269 267 263 269 263 253 258 257 245 220 200 216 221 218 222 224 227 239 244 246 253 260 259 254 259 269 275 276 276 278 278 279 284 281 258 244 243 247
194 220 147 185 230 203 189 195 186 204 218 215 225 224 216 221 213 199 205 206 203 196 192 208 216 217 222 212 206 219 217 209 225 228 188 179 193 194 206 187 142 149 187 179 166 168 170 200 173 104 256 261 255 265 268 268 270 262 243 208 212 226 227 221 218 216 221 230 238 245 251 254 254 254 257 262 268 275 276 273 273 272 269 263 252 243 238 241
193 10 87 157 238 197 189 200 189 204 220 218 220 218 217 224 209 197 221 222 209 208 194 196 207 213 222 219 211 217 223 222 230 235 189 188 195 184 197 198 162 152 164 177 168 152 167 187 162 144 229 266 266 274 316 352 295 271 227 195 215 228 229 231 231 223 222 223 226 233 236 238 246 255 262 260 256 259 266 269 270 269 260 230 215 225 236 243
Height
804 804 804 804 804 804 803 803 803 803 803 802 802 802 802 802 801 801 800 800 800 798 798 797 796 795 793 792 791 790 789 787 785 784 783 782 781 780 779 779 779 779 780 780 780 780 779 779 779 779 780 780 781 781 780 780 782 788 792 796 795 791 787 780 776 773 770 768 762 759 758 761 762 758 755 754 755 755 754 752 749 748 745 744 743 743 744 744
804 804 804 804 803 803 803 802 802 802 802 801 801 801 801 801 801 800 800 799 799 798 797 796 795 794 792 791 790 790 788 787 784 782 781 781 780 778 777 776 777 778 779 779 779 779 778 777 776 778 779 780 779 778 779 779 781 786 790 794 791 784 778 771 769 767 765 766 762 758 757 759 760 757 755 757 758 754 755 752 749 748 744 741 740 740 741 741
803 803 803 803 802 802 802 801 801 801 801 800 800 800 800 800 800 800 799 799 798 797 796 795 794 792 791 790 789 789 788 785 783 780 780 780 779 777 775 775 776 778 778 779 779 778 777 775 775 776 778 779 777 777 780 779 781 783 786 792 786 777 773 767 766 765 763 764 763 761 758 758 757 755 755 758 757 754 753 752 750 748 743 740 736 735 737 738
802 802 802 802 801 801 801 801 800 800 799 799 799 799 798 798 798 798 798 797 796 796 795 794 793 792 791 790 789 789 787 786 782 779 780 780 778 777 776 776 777 777 777 778 778 778 776 775 775 775 778 780 776 776 779 779 780 780 782 786 779 773 773 767 764 764 762 762 763 762 760 759 756 754 754 756 758 753 748 746 745 743 739 737 734 731 733 735
801 801 801 800 800 800 800 800 799 799 799 798 797 797 797 797 797 797 796 796 795 795 794 794 792 791 791 789 789 788 788 790 783 778 780 779 778 777 777 777 777 777 777 778 778 778 777 775 775 776 779 780 777 776 778 775 775 778 778 777 773 771 772 766 762 762 761 762 762 762 762 759 755 753 753 754 755 749 742 739 737 736 735 734 732 730 731 732
800 800 800 799 799 799 799 799 798 798 797 797 797 796 796 796 796 795 795 795 794 794 793 793 791 790 790 789 789 788 790 791 781 777 780 778 779 778 777 777 777 777 778 779 779 778 777 775 776 778 779 779 778 777 776 771 772 780 777 771 769 770 770 766 762 762 761 762 763 762 760 757 757 755 751 750 747 740 735 733 732 732 731 731 730 730 730 730
799 799 798 798 798 797 797 798 797 797 796 796 795 794 794 795 794 794 794 793 793 792 792 792 790 789 789 789 789 788 789 785 776 777 779 778 779 777 776 776 776 777 778 780 779 777 776 776 776 777 778 779 777 774 773 769 769 778 777 770 768 767 766 764 762 761 761 762 761 760 759 758 759 755 749 746 740 735 731 729 730 730 728 728 728 728 728 727
798 798 797 797 796 796 796 796 796 796 795 795 794 793 793 793 793 793 792 793 792 791 791 791 790 789 789 788 788 789 787 780 776 777 777 777 777 776 776 775 775 777 777 779 778 776 776 776 775 774 777 776 774 773 771 770 772 776 776 771 768 766 762 760 759 759 760 760 759 760 760 757 756 754 747 740 735 730 728 727 727 727 726 726 726 725 724 724
797 797 796 796 795 795 795 795 795 795 794 793 792 792 792 792 792 791 792 792 791 790 790 790 790 789 789 787 788 790 784 776 776 777 776 776 775 775 775 775 776 776 776 778 776 776 776 775 773 772 774 773 771 771 769 774 776 773 772 769 766 764 760 757 756 757 758 757 758 760 759 754 752 754 743 731 728 725 725 726 723 724 724 723 722 721 720 720
797 796 795 794 794 794 793 793 793 793 793 792 791 791 790 790 790 790 790 790 790 789 789 789 789 788 789 787 789 790 780 775 776 776 776 775 775 775 775 775 776 776 776 776 775 776 775 775 773 771 773 772 771 770 768 773 773 767 767 766 764 762 758 757 755 755 755 755 756 759 757 752 751 754 741 724 721 721 723 723 719 720 721 719 718 717 716 716
796 795 795 793 792 792 792 792 792 792 792 791 790 789 789 789 789 788 789 789 788 788 788 788 788 788 788 787 790 787 777 775 776 775 776 775 775 775 775 775 775 776 776 775 775 775 774 774 773 773 775 774 772 770 767 768 767 764 766 766 764 762 758 756 755 754 755 755 752 753 755 751 750 752 738 721 716 718 721 720 717 718 717 716 715 714 714 713
795 795 794 792 791 791 791 791 791 791 791 790 789 788 788 788 787 787 787 787 787 787 787 787 788 788 787 788 787 781 775 775 775 774 775 774 774 775 774 774 774 775 775 775 774 774 774 774 774 776 776 774 773 773 770 768 766 765 766 770 767 762 760 754 752 751 752 754 750 753 759 750 745 741 727 717 714 715 719 718 716 716 714 714 713 712 711 710
794 794 793 792 791 790 789 789 789 789 789 789 788 787 787 786 786 786 786 786 785 786 787 787 787 787 788 786 779 775 774 775 774 774 775 774 774 774 773 773 773 774 774 774 774 773 773 773 775 777 774 774 775 773 772 768 767 767 767 771 771 769 762 747 744 746 749 752 748 757 764 744 730 726 718 714 712 713 716 715 714 713 712 711 710 709 708 706
793 793 792 791 790 789 788 787 787 787 787 787 786 786 785 785 786 785 784 784 784 786 786 786 787 787 788 783 774 773 774 773 774 774 774 774 773 773 772 772 772 773 773 773 773 772 773 773 775 776 773 774 774 772 772 769 768 769 769 769 772 776 763 741 740 746 750 753 748 758 766 744 726 721 714 710 709 711 713 712 712 711 710 709 707 706 704 702
792 792 791 790 789 788 787 786 786 785 785 785 784 784 784 784 784 783 784 783 784 785 785 786 786 786 788 781 772 772 772 772 773 772 773 772 771 772 772 772 772 772 772 772 772 772 773 773 775 775 774 773 773 775 777 773 769 769 775 774 769 773 763 743 742 745 749 753 750 758 763 744 729 719 712 709 708 710 712 711 711 710 708 707 704 703 701 699
790 791 790 789 788 787 786 785 784 783 783 783 783 783 783 783 783 783 783 782 784 785 785 787 785 787 788 779 771 771 770 771 771 771 772 770 770 771 772 772 772 772 772 771 771 772 772 773 774 773 773 774 775 778 780 780 774 768 773 775 767 768 763 750 748 745 746 752 752 755 754 743 729 717 712 711 710 712 712 710 709 707 706 703 702 699 698 696
788 789 789 788 788 787 786 784 783 782 781 781 781 781 781 782 782 783 782 783 784 784 786 786 785 788 784 773 770 770 768 768 770 770 769 769 769 770 771 772 772 772 772 772 771 772 773 773 773 773 773 775 774 777 786 790 783 770 768 771 766 761 757 752 752 749 748 752 752 752 751 744 731 719 715 713 712 712 710 708 706 704 702 699 697 696 694 694
786 787 787 787 786 786 785 783 782 781 780 780 780 781 781 781 782 783 783 783 784 786 787 786 787 787 778 770 769 768 766 767 767 767 767 768 769 770 771 772 772 772 772 772 772 772 772 772 773 775 775 777 776 778 788 786 775 770 768 769 766 759 754 750 751 751 750 751 749 749 748 741 729 718 714 711 710 709 705 703 702 700 698 696 694 693 692 691
784 785 785 786 786 785 784 783 782 780 779 779 780 780 781 782 783 782 783 783 784 784 783 781 782 780 772 767 766 766 766 766 766 767 767 768 769 769 771 772 771 772 773 772 772 771 771 774 777 780 779 778 776 775 779 771 764 766 766 766 766 763 758 748 746 751 750 749 747 745 743 736 728 719 711 709 707 706 702 699 698 697 695 693 691 691 690 691
783 783 784 784 785 784 783 782 781 780 779 778 779 781 781 781 781 781 782 782 777 773 770 771 772 770 767 766 765 766 767 767 767 767 768 768 769 770 771 771 771 773 773 771 773 770 770 777 780 779 777 773 771 769 768 765 763 764 764 765 764 764 761 748 745 750 746 746 744 738 738 733 726 718 709 707 706 704 701 698 697 694 691 690 690 689 689 689
782 782 782 783 783 783 782 782 781 780 779 778 779 780 778 777 778 778 779 775 769 766 765 765 766 765 765 765 765 766 766 767 767 767 768 768 770 772 771 771 774 776 772 769 772 770 772 780 777 772 770 767 766 765 764 765 764 764 766 768 766 764 759 746 746 750 745 748 745 737 737 732 723 718 709 706 706 702 697 696 694 690 688 687 686 687 687 687
782 781 780 781 781 782 781 781 780 779 779 778 779 779 775 775 776 776 776 771 764 762 763 763 763 763 763 764 764 765 766 768 768 767 768 768 770 773 770 770 775 773 769 770 772 776 780 779 771 766 766 765 766 764 764 765 766 767 768 769 769 763 754 747 747 749 747 751 747 740 741 733 721 717 709 704 704 697 691 690 689 686 685 685 684 685 686 687
782 780 779 779 779 780 780 780 780 779 778 778 777 777 775 775 775 775 776 773 763 757 758 760 761 762 762 764 763 764 767 767 767 766 766 768 770 770 769 770 772 769 769 771 772 779 781 773 766 766 767 766 766 765 765 767 768 769 769 771 770 761 755 754 751 749 748 749 747 745 746 735 720 714 705 697 695 690 687 684 681 681 683 683 684 685 686 688
781 780 779 777 778 779 778 779 779 778 777 776 775 774 774 775 775 775 776 772 762 755 755 756 757 760 760 762 762 763 766 764 763 764 764 767 767 767 767 767 768 769 769 768 769 773 771 768 768 769 768 767 766 766 767 770 770 768 766 767 766 758 756 756 752 750 748 746 746 749 749 732 714 711 703 691 688 685 683 682 679 679 680 683 685 686 686 686
781 780 778 777 777 777 778 778 777 776 776 775 774 772 773 774 774 775 776 773 764 756 757 757 757 759 758 760 761 761 763 762 760 761 762 764 764 765 765 763 765 768 766 764 768 769 765 769 772 768 767 767 766 768 767 769 771 767 762 761 760 757 756 756 756 757 756 754 751 752 756 736 710 710 707 693 690 687 681 681 681 680 681 684 686 686 686 685
780 779 778 777 776 775 777 776 776 776 775 774 773 771 772 773 773 775 776 778 770 757 757 759 758 759 758 759 761 760 762 763 760 760 762 763 762 763 765 763 763 766 763 760 764 765 766 773 773 766 766 766 767 768 764 765 771 769 763 762 760 757 759 760 760 762 761 758 752 752 763 751 723 714 706 694 693 687 681 681 682 683 684 685 686 685 685 684
778 779 778 776 775 775 776 775 776 776 774 773 772 771 772 771 773 774 776 781 770 753 755 760 758 758 758 758 759 760 765 764 762 762 761 762 762 761 765 764 763 765 762 762 766 765 766 773 772 768 767 767 768 768 761 761 769 768 764 765 762 758 761 760 760 764 762 758 754 751 759 761 744 720 699 693 694 686 682 684 683 685 686 685 684 684 683 683
776 778 777 776 774 774 775 775 776 775 774 773 771 772 771 771 773 773 778 782 764 748 752 757 757 757 757 758 759 761 763 762 763 764 761 762 762 762 765 764 761 762 760 763 768 766 765 768 769 769 769 769 768 767 763 760 763 766 766 766 762 761 763 760 762 766 762 763 763 755 756 763 752 720 694 690 692 687 684 685 686 686 686 685 683 683 682 682
775 776 777 776 774 773 774 775 775 773 773 772 772 772 770 772 773 772 782 779 756 746 752 755 758 758 757 760 761 761 761 761 763 764 762 762 762 763 766 763 759 761 760 762 764 763 765 767 766 766 768 768 768 770 770 764 763 767 768 766 764 764 763 762 767 766 765 770 765 753 753 759 749 721 700 695 691 686 685 683 685 685 684 684 683 682 682 681
774 774 776 776 773 772 773 773 773 772 772 772 772 772 771 774 773 777 786 771 749 750 754 755 758 757 758 762 761 761 761 760 760 762 762 762 762 762 763 761 760 761 761 761 762 762 767 770 768 765 764 766 770 774 774 769 768 769 769 767 765 766 766 766 767 766 771 773 759 749 749 754 752 724 702 697 688 682 684 683 683 683 682 683 681 682 682 681
773 773 775 775 774 772 771 771 771 770 772 772 772 772 773 774 774 779 778 756 745 754 756 756 758 756 758 759 758 760 761 759 758 762 764 763 764 764 763 763 763 764 764 762 761 761 766 770 767 765 765 766 769 772 774 773 772 770 768 764 762 764 766 767 767 770 777 768 751 749 748 752 754 723 693 688 682 679 682 682 682 682 682 682 681 681 681 682
773 772 773 774 773 771 769 768 769 770 771 771 772 772 772 776 777 773 762 746 746 755 753 753 756 755 757 755 754 758 759 757 757 759 761 762 764 764 763 762 761 765 767 763 760 759 762 765 764 767 769 766 765 768 772 774 772 769 767 765 765 766 766 768 770 770 770 761 750 752 751 751 746 717 694 689 682 680 679 676 678 679 680 680 679 681 681 681
772 771 771 772 772 770 767 767 768 770 770 770 772 770 772 779 772 759 751 743 746 751 749 749 753 753 755 756 755 754 755 756 756 757 757 757 760 759 758 755 753 757 760 758 758 758 760 762 764 766 766 766 763 762 766 768 770 771 766 764 767 768 768 767 762 756 755 755 752 751 751 749 734 707 692 687 680 677 675 673 676 676 678 679 678 680 680 680
771 770 770 769 770 769 767 767 768 768 769 770 771 772 777 777 761 749 746 742 744 750 749 751 753 754 756 757 754 752 755 757 755 757 758 757 761 760 755 752 750 751 755 756 753 753 754 755 762 765 763 766 763 759 762 761 765 767 758 758 764 764 764 762 756 752 750 751 754 755 751 740 722 698 683 679 676 674 673 673 674 675 677 678 678 679 679 679
769 768 767 767 767 766 766 767 767 768 770 769 770 773 775 767 753 744 741 740 744 749 751 754 755 756 757 757 754 751 755 757 754 757 760 759 759 757 752 748 747 748 754 757 750 748 748 747 762 771 766 767 764 761 763 759 760 760 753 757 763 759 758 757 759 760 759 759 757 754 743 722 704 688 676 676 675 673 674 673 674 676 677 677 677 677 678 678
767 766 765 764 763 763 765 766 765 767 768 767 770 771 762 751 744 738 734 735 740 745 752 754 753 754 754 753 754 754 754 756 757 759 760 757 754 751 745 740 739 742 748 750 745 744 746 750 766 772 766 768 768 764 765 761 760 758 755 760 761 759 757 755 761 764 765 767 753 739 732 715 702 692 676 674 677 674 675 675 675 677 677 677 676 677 678 677
765 764 762 760 760 761 763 764 765 767 767 765 766 760 749 740 734 731 732 734 736 739 746 748 746 747 746 744 750 755 755 754 757 759 756 754 749 743 741 735 732 736 739 739 739 738 741 752 768 769 764 769 771 768 768 765 764 761 760 762 758 759 759 755 761 763 761 761 742 725 723 716 713 704 682 675 680 678 676 676 677 677 676 676 676 676 676 676
763 762 759 755 756 758 761 763 764 766 765 764 762 752 743 738 731 730 733 734 735 736 741 741 739 740 740 739 745 754 755 752 756 759 752 749 743 734 736 736 731 733 734 735 740 739 737 748 766 773 769 770 773 770 765 765 768 765 763 766 762 760 758 756 761 760 756 755 740 722 717 712 712 705 687 681 681 677 675 676 676 676 675 675 675 675 675 675
762 761 755 750 752 755 759 762 763 765 763 761 759 749 741 735 731 731 732 732 733 735 739 736 734 739 740 738 742 750 752 749 754 755 747 744 740 731 731 732 733 737 735 735 740 739 737 744 759 772 772 769 772 769 762 763 770 770 766 767 766 762 756 753 755 752 750 753 745 732 723 712 700 690 684 682 676 673 673 673 673 673 672 672 672 672 673 674
761 757 750 747 750 753 757 761 763 764 760 753 749 744 739 735 732 732 733 733 732 732 734 730 729 735 738 738 740 744 747 748 749 749 742 739 737 731 728 728 734 740 738 738 739 737 740 743 751 770 776 769 765 761 754 753 760 767 768 765 763 759 753 751 750 744 744 750 748 743 734 713 687 676 675 675 671 670 670 670 670 668 668 670 670 670 672 673
760 755 746 745 749 750 755 761 761 759 754 747 742 740 738 734 732 734 737 738 735 732 732 729 727 730 732 734 736 738 743 746 745 743 738 736 734 730 727 727 732 739 740 743 742 738 741 742 745 763 771 760 752 753 754 751 749 753 756 754 752 751 750 753 752 743 742 746 742 743 739 710 679 669 669 669 669 668 667 668 669 667 666 668 669 670 671 671
757 751 744 744 747 748 751 756 755 751 748 744 738 735 734 731 731 734 738 740 738 736 736 734 730 730 730 729 730 733 738 740 742 740 735 733 730 727 727 727 729 733 736 740 740 736 737 739 743 749 752 752 754 757 760 759 752 749 749 745 743 744 744 747 748 742 742 745 740 744 742 705 671 666 667 665 667 666 666 667 667 667 666 666 668 669 670 670
753 748 745 746 746 746 748 751 752 749 743 739 734 731 731 730 730 732 735 738 738 736 738 736 732 730 728 726 727 731 733 733 734 734 731 728 726 728 730 729 729 730 731 734 735 735 736 739 742 741 740 748 758 760 759 759 754 748 745 742 741 739 735 736 739 736 739 742 738 745 743 703 670 667 665 663 666 665 666 666 665 666 666 665 667 668 668 669
747 744 746 748 747 747 744 740 741 743 740 737 735 732 731 730 729 729 731 732 733 732 734 733 730 727 725 725 726 727 729 730 727 726 726 723 725 732 734 731 731 730 729 731 730 731 735 737 740 743 741 743 749 750 750 753 754 747 740 740 740 736 733 735 736 736 739 735 727 735 735 700 672 669 667 665 668 666 666 667 665 665 666 665 666 665 666 666
743 741 744 747 747 747 741 731 731 734 734 735 734 731 732 730 725 725 726 727 727 727 728 727 724 724 725 726 728 726 725 726 724 722 722 721 726 735 738 734 734 732 732 737 733 728 731 732 734 740 743 741 738 735 733 737 746 746 739 736 737 736 735 735 736 741 742 731 722 726 720 693 674 673 672 669 669 668 666 666 666 666 665 665 665 664 665 665
740 737 740 748 749 747 741 734 733 730 726 732 733 728 729 727 723 723 724 724 724 723 723 722 721 723 726 727 729 729 727 726 725 724 722 721 723 733 740 738 736 737 739 741 739 733 731 730 727 728 729 728 723 720 722 726 734 738 734 732 734 735 734 734 737 739 734 728 724 718 710 698 686 680 677 672 669 670 667 664 665 665 664 663 664 663 663 664
738 730 729 740 745 746 743 737 735 730 723 724 723 717 717 719 720 724 724 722 720 720 722 723 721 721 723 726 728 729 729 729 729 727 723 721 723 732 741 740 737 739 740 738 737 735 733 731 727 724 723 719 715 715 718 721 723 724 725 727 731 733 734 736 735 727 722 726 721 707 703 705 694 680 675 670 667 668 666 663 663 662 661 661 661 662 663 663
734 723 716 721 724 728 733 731 728 728 724 717 711 706 707 712 715 719 721 723 721 719 720 722 721 717 715 718 721 725 729 731 731 726 719 719 723 729 734 738 739 741 739 737 737 735 734 732 726 724 724 719 716 718 718 718 718 718 719 720 724 730 733 733 728 719 717 719 710 698 698 700 690 678 669 662 661 663 661 659 659 659 659 660 660 661 661 661
728 723 718 714 709 709 715 717 719 722 720 715 710 702 701 705 707 709 715 723 723 718 716 715 713 712 710 711 714 719 723 725 724 721 717 717 720 722 724 728 736 744 740 736 737 735 732 729 723 723 725 721 719 720 719 720 719 717 716 717 720 724 724 722 718 715 715 711 702 697 695 689 682 675 663 653 654 657 656 656 657 656 657 659 660 660 658 659
720 719 715 713 709 707 709 711 715 717 717 716 709 697 695 700 701 703 708 712 714 714 713 708 705 706 707 708 709 710 710 709 707 707 711 715 718 719 717 713 722 740 742 735 735 734 731 728 722 723 726 722 720 721 720 720 719 715 714 715 717 717 715 715 714 712 712 709 701 697 697 690 677 667 659 653 650 652 656 657 656 655 655 656 657 656 655 655
711 711 710 710 706 704 706 708 711 715 714 709 700 692 694 695 694 698 700 696 696 701 704 703 702 704 704 705 705 702 699 699 696 695 700 707 708 709 709 704 709 729 740 735 731 732 734 730 723 726 730 722 717 719 719 718 719 715 714 716 713 707 704 704 705 704 703 700 698 701 702 690 670 658 659 657 653 654 655 655 655 654 653 652 652 652 652 650
709 710 710 710 705 700 700 702 706 707 699 689 687 689 691 689 688 694 695 689 688 692 695 698 701 702 701 699 698 694 691 692 692 693 696 699 699 699 701 701 701 713 729 732 729 730 733 728 722 727 729 722 718 718 718 723 718 701 699 706 700 693 694 696 696 694 689 687 691 693 685 670 660 658 659 656 654 655 652 650 651 650 649 650 649 648 648 646